Regional Weather Roundup
Issued by NWS Sioux Falls, SD

Home | Current Version | Previous Version | Text Only | Print | Product List | Glossary On
Versions: 1 2 3 4 5 6 7 8 9 10 11 12 13 14 15 16 17 18 19 20 21 22 23 24 25 26 27 28 29 30 31 32 33 34 35 36 37 38 39 40 41 42 43 44 45 46 47 48 49 50
000
ASUS43 KFSD 290010
RWRFSD

WEATHER ROUNDUP FOR SE SOUTH DAKOTA/SW MINNESOTA/NW IOWA
NATIONAL WEATHER SERVICE SIOUX FALLS SD
700 PM CDT TUE JUL 28 2015

NOTE: "FAIR" INDICATES FEW OR NO CLOUDS BELOW 12,000 FEET WITH NO
SIGNIFICANT WEATHER AND OR OBSTRUCTIONS TO VISIBILITY.


SDZ038>040-050-052>070-290100-
SOUTHEAST SOUTH DAKOTA

CITY           SKY/WX    TMP DP  RH WIND       PRES   REMARKS
CHAMBERLAIN    SUNNY     80  47  31 W18       29.97S
6HR MIN TEMP:  75; 6HR MAX TEMP:  81;

HURON          SUNNY     79  53  40 W16       29.91R
6HR MIN TEMP:  74; 6HR MAX TEMP:  80;

MADISON        FAIR      75  55  50 W15G21    29.94S
MITCHELL       NOT AVBL
SIOUX FALLS    MOSUNNY   78  57  48 W8        29.94R
6HR MIN TEMP:  74; 6HR MAX TEMP:  80;

WINNER         FAIR      82  47  29 NW14      30.00R
$$

MNZ071-072-080-081-089-090-097-098-290100-
SOUTHWEST MINNESOTA

CITY           SKY/WX    TMP DP  RH WIND       PRES   REMARKS
JACKSON        SUNNY     79  61  53 W9        29.93R
LUVERNE        SUNNY     79  59  50 W7        29.94F
MARSHALL       NOT AVBL
MONTEVIDEO     SUNNY     79  61  53 NW9       29.89R
PIPESTONE      SUNNY     75  55  50 NW12G17   29.94S
REDWOOD FALLS  SUNNY     79  60  52 W12       29.87R
TRACY          SUNNY     77  61  57 W6        29.91S
WINDOM         SUNNY     79  59  50 W10G21    29.91R
$$

IAZ001>003-012>014-020>022-031-032-NEZ013-014-SDZ071-290100-
NORTHWEST IOWA

CITY           SKY/WX    TMP DP  RH WIND       PRES   REMARKS
CHEROKEE       PTSUNNY   76  67  75 NW7       29.92S
DENISON        PTSUNNY   75  72  88 N10       29.90S
ESTHERVILLE    CLOUDY    76  71  85 W8        29.91R
LE MARS        SUNNY     77  64  65 NW8       29.94S
ORANGE CITY    SUNNY     75  61  60 NW9       29.94S
SHELDON        SUNNY     75  63  64 W9        29.93R
SIOUX CITY     CLOUDY    78  61  55 N12       29.93S
6HR MIN TEMP:  75; 6HR MAX TEMP:  80; 6HR PCP: TRACE;

SPENCER        PTSUNNY   78  63  59 NW10      29.92S
6HR MIN TEMP:  74; 6HR MAX TEMP:  81; 6HR PCP:  0.01;

STORM LAKE     PTSUNNY   75  72  88 NW8       29.94R
$$

ABBREVIATIONS USED IN REMARKS
   TC - TEMPERATURE IN CELSIUS
  WCI - WIND CHILL INDEX
   HX - HEAT INDEX
  VSB - VISIBILITY



USA.gov is the U.S. government's official web portal to all federal, state and local government web resources and services.